Location: La Comballaz
(46.3780°N, 7.0817°E)
Time: 05:45:27
(UTC+00:00)

N. Korean satellite - Pass Details

Date: 12 December 2021
Orbit: 447 x 491 km, 97.3° (Epoch: 25 January)

Event Time Altitude Azimuth Distance (km) Brightness Sun altitude
Rises 04:07:25 0° 25° (NNE) 2,460 10.4 -29.7°
Enters shadow 04:08:32 - 30° (NNE) 2,025 10.0 -29.5°
Exits shadow 04:13:38 19° 124° (SE) 1,120 9.0 -28.6°
Drops below altitude 10° 04:15:16 10° 150° (SSE) 1,580 9.5 -28.4°
Sets 04:17:35 0° 165° (SSE) 2,452 10.4 -28.0°
